Satellite: NO-44
Catalog number: 26931
Epoch time:      11215.54205039
Element set:    0817
Inclination:      067.0484 deg
RA of node:       221.5047 deg
Eccentricity:    0.0006025
Arg of perigee:   256.0774 deg
Mean anomaly:     103.9661 deg
Mean motion:   14.29670578 rev/day
Decay rate:       -8.0e-08 rev/day^2
Epoch rev:           51369
Checksum:              297

Satellite: SO-50
Catalog number: 27607
Epoch time:      11215.90148730
Element set:    0533
Inclination:      064.5578 deg
RA of node:       182.6784 deg
Eccentricity:    0.0076803
Arg of perigee:   311.1529 deg
Mean anomaly:     048.2977 deg
Mean motion:   14.71781883 rev/day
Decay rate:        8.7e-07 rev/day^2
Epoch rev:           46311
Checksum:              323

Satellite: CO-55
Catalog number: 27844
Epoch time:      11215.57052424
Element set:     167
Inclination:      098.7071 deg
RA of node:       223.5837 deg
Eccentricity:    0.0010777
Arg of perigee:   062.1446 deg
Mean anomaly:     298.0824 deg
Mean motion:   14.20829566 rev/day
Decay rate:        7.5e-07 rev/day^2
Epoch rev:           41964
Checksum:              318

Satellite: CO-57
Catalog number: 27848
Epoch time:      11215.52131455
Element set:     118
Inclination:      098.7145 deg
RA of node:       222.7416 deg
Eccentricity:    0.0010830
Arg of perigee:   067.4152 deg
Mean anomaly:     292.8162 deg
Mean motion:   14.20607415 rev/day
Decay rate:        8.6e-07 rev/day^2
Epoch rev:           41958
Checksum:              294

Satellite: AO-51
Catalog number: 28375
Epoch time:      11216.58544931
Element set:      37
Inclination:      098.1020 deg
RA of node:       192.4956 deg
Eccentricity:    0.0083318
Arg of perigee:   284.1293 deg
Mean anomaly:     075.0651 deg
Mean motion:   14.40771110 rev/day
Decay rate:        5.2e-07 rev/day^2
Epoch rev:           37303
Checksum:              283

Satellite: CP3
Catalog number: 31129
Epoch time:      11216.43929340
Element set:     933
Inclination:      097.8957 deg
RA of node:       237.8605 deg
Eccentricity:    0.0102601
Arg of perigee:   032.1573 deg
Mean anomaly:     328.5834 deg
Mean motion:   14.52530785 rev/day
Decay rate:       4.67e-06 rev/day^2
Epoch rev:           22784
Checksum:              308

Satellite: CO-65
Catalog number: 32785
Epoch time:      11216.68949136
Element set:      60
Inclination:      097.8467 deg
RA of node:       279.6493 deg
Eccentricity:    0.0015273
Arg of perigee:   022.1446 deg
Mean anomaly:     338.0400 deg
Mean motion:   14.82068261 rev/day
Decay rate:       7.39e-06 rev/day^2
Epoch rev:           17672
Checksum:              325

Satellite: PRISM
Catalog number: 33493
Epoch time:      11216.71244532
Element set:     834
Inclination:      098.1296 deg
RA of node:       346.0474 deg
Eccentricity:    0.0018483
Arg of perigee:   242.8921 deg
Mean anomaly:     117.0418 deg
Mean motion:   14.81814087 rev/day
Decay rate:       7.97e-06 rev/day^2
Epoch rev:           13670
Checksum:              304

Satellite: SOHLA-1
Catalog number: 33496
Epoch time:      11215.91399433
Element set:    0500
Inclination:      098.0843 deg
RA of node:       325.2720 deg
Eccentricity:    0.0006324
Arg of perigee:   341.1771 deg
Mean anomaly:     018.9200 deg
Mean motion:   14.69639363 rev/day
Decay rate:       1.03e-06 rev/day^2
Epoch rev:           13549
Checksum:              280

Satellite: TISAT-1
Catalog number: 36799
Epoch time:      11216.72728181
Element set:     108
Inclination:      098.0986 deg
RA of node:       285.4541 deg
Eccentricity:    0.0016475
Arg of perigee:   118.0314 deg
Mean anomaly:     242.2556 deg
Mean motion:   14.80642500 rev/day
Decay rate:       5.96e-06 rev/day^2
Epoch rev:            5749
Checksum:              312

Satellite: STUDSAT
Catalog number: 36801
Epoch time:      11215.71727766
Element set:    0226
Inclination:      098.1055 deg
RA of node:       284.3323 deg
Eccentricity:    0.0014612
Arg of perigee:   109.6103 deg
Mean anomaly:     250.6685 deg
Mean motion:   14.80828345 rev/day
Decay rate:      1.532e-05 rev/day^2
Epoch rev:           05733
Checksum:              280

Satellite: RAX
Catalog number: 37223
Epoch time:      11152.36844328
Element set:    0173
Inclination:      071.9713 deg
RA of node:       073.6151 deg
Eccentricity:    0.0021634
Arg of perigee:   311.5989 deg
Mean anomaly:     048.3343 deg
Mean motion:   14.77415682 rev/day
Decay rate:       6.35e-06 rev/day^2
Epoch rev:           02854
Checksum:              291

Satellite: OOREOS
Catalog number: 37224
Epoch time:      11153.29456974
Element set:    0179
Inclination:      071.9726 deg
RA of node:       071.8135 deg
Eccentricity:    0.0020315
Arg of perigee:   307.7637 deg
Mean anomaly:     052.1684 deg
Mean motion:   14.77036357 rev/day
Decay rate:       4.92e-06 rev/day^2
Epoch rev:           02867
Checksum:              309

Satellite: FO-69
Catalog number: 37227
Epoch time:      11213.85438999
Element set:    0096
Inclination:      071.9710 deg
RA of node:       298.5710 deg
Eccentricity:    0.0017671
Arg of perigee:   201.5443 deg
Mean anomaly:     158.4977 deg
Mean motion:   14.76618042 rev/day
Decay rate:        9.9e-07 rev/day^2
Epoch rev:           01606
Checksum:              334

